Orbital Elements at Epoch 2455797.5 (2011-Aug-24.0) TDB
Reference: JPL 44 (heliocentric ecliptic J2000)
Element | Value | Uncertainty (1-sigma) | Units |
e | .406738707574909 | 9.6472e-08 | |
a | 3.536509937680266 | 1.9193e-07 | au |
q | 2.098074456302373 | 3.261e-07 | au |
i | 7.307309105263396 | 6.398e-06 | deg |
node | 89.81289187480661 | 6.5508e-05 | deg |
peri | 224.3736637933758 | 7.8331e-05 | deg |
M | 8.922286273971444 | 1.2794e-05 | deg |
tp | 2455737.294744488128 (2011-Jun-24.79474449) | 8.5209e-05 | TDB |
period | 2429.185896837016 6.65 | 0.00019775 5.414e-07 | d yr |
n | .1481977976525993 | 1.2064e-08 | deg/d |
Q | 4.97494541905816 | 2.6999e-07 | au |
|
Additional Model Parameters
Parameter | Value | Uncertainty (1-sigma) |
A1 [EST] | 3.563459882542453E-10 | 8.947E-11 |
A2 [EST] | 3.596247524528032E-13 | 3.874E-12 |
|
| | Orbit Determination Parameters
Additional Information
|